Location: Betzi
(47.2343°N, 9.5260°E)
Time: 16:22:09
(UTC+00:00)

Cosmos 2154 Rocket - Pass Details

Date: 27 May 2022
Orbit: 965 x 997 km, 82.9° (Epoch: 06 July)

Event Time Altitude Azimuth Distance (km) Brightness Sun altitude
Rises 01:22:44 0° 351° (N) 3,727 7.9 -16.1°
Reaches altitude 10° 01:25:16 10° 351° (N) 2,772 7.1 -15.8°
Maximum altitude 01:31:39 88° 78° (ENE) 998 4.0 -15.3°
Enters shadow 01:37:45 11° 173° (S) 2,658 5.8 -14.7°
